#timestamp,LO_Frequency,Hit,StdDev 
1506452415.6,286047013.0,P
1506452435.4,286047013.0,Y
1506452455.2,286047006.0,P
1506452475.1,286047007.6,P
1506452476.0,286047007.6,P
1506452495.8,286047010.4,Y
1506452515.7,286046999.7,P
1506452535.5,286047001.8,N
1506452555.3,286047007.7,N
1506452575.2,286047013.3,Y
1506452595.9,286047010.4,P
1506452615.7,286047007.2,N
1506452635.5,286047005.8,N
1506452655.4,286047001.7,N
1506452675.2,286047002.8,N
1506452695.0,286047000.8,N
1506452695.9,286047000.8,N
1506452715.8,286046997.0,N
1506452735.6,286046994.7,N
1506452755.4,286046988.6,N
1506452775.3,286046988.3,N
1506452795.1,286046988.3,N
1506452796.0,286046988.3,N
1506452815.8,286046989.1,N
1506452835.7,286046988.9,N
1506452855.5,286046985.5,N
1506452875.3,286046987.3,N
1506452895.2,286046988.4,N
1506452915.9,286046986.4,N
1506452935.7,286046981.2,N
1506452955.5,286046981.5,N
1506452975.4,286046980.2,N
1506452995.2,286046978.3,N
1506453015.0,286046975.7,N
1506453015.9,286046975.7,N
1506453035.8,286046974.2,N
1506453055.6,286046973.3,N
1506453075.4,286046972.3,N
1506453095.3,286046968.8,N
1506453115.1,286046966.0,N
1506453116.0,286046966.0,N
1506453135.8,286046968.2,N
1506453155.7,286046970.8,N
1506453175.5,286046968.9,N
1506453195.3,286046965.8,Y
1506453215.2,286046983.5,P
1506453235.9,286046981.5,P
1506453255.7,286046978.9,P
1506453275.6,286046980.0,Y
1506453295.4,286047001.7,P
1506453315.2,286047006.1,N
1506453335.1,286047008.9,N
1506453336.0,286047008.9,N
1506453355.8,286047004.8,N
1506453375.6,286047005.9,N
1506453395.5,286047005.9,N
1506453415.3,286047003.3,N
1506453435.1,286047000.2,N
1506453455.8,286046999.3,N
1506453475.7,286046994.9,N
1506453495.5,286046997.9,N
1506453515.3,286046998.0,N
1506453535.2,286046996.3,N
1506453555.9,286046995.9,N
1506453575.7,286046991.8,N
1506453595.6,286046988.7,N
1506453615.4,286046987.4,N
1506453635.2,286046989.6,N
1506453655.0,286046987.6,N
1506453656.0,286046987.6,N
1506453675.8,286046986.7,N
1506453695.6,286046987.9,N
1506453715.4,286046989.5,N
1506453735.3,286046990.6,N
1506453755.1,286046992.8,N
1506453775.8,286046991.0,N
1506453795.7,286046990.9,N
1506453815.5,286046991.6,N
1506453835.3,286046991.4,N
1506453855.2,286046991.0,N
1506453875.9,286046987.0,N
1506453895.7,286046988.1,N
1506453915.6,286046987.9,N
1506453935.4,286046989.9,N
1506453955.2,286046987.0,N
1506453975.0,286046987.1,N
1506453976.0,286046987.1,N
1506453995.8,286046987.4,Y
1506454015.6,286046997.8,P
1506454035.5,286046996.8,N
1506454055.3,286046999.3,N
1506454075.1,286046997.6,N
1506454095.8,286046995.7,N
1506454115.7,286046997.6,N
1506454135.5,286046997.5,N
1506454155.3,286046993.4,N
1506454175.2,286046996.4,N
1506454195.9,286046994.3,N
1506454215.7,286046994.6,N
1506454235.6,286046992.0,Y
1506454255.4,286046995.2,P
1506454275.2,286046996.0,P
1506454295.1,286046992.2,P
1506454296.0,286046992.2,Y
1506454315.8,286046996.6,P
1506454335.6,286046998.4,N
1506454355.5,286046994.9,P
1506454375.3,286046996.6,N
1506454395.1,286046999.0,N
1506454415.9,286046998.2,N
1506454435.7,286046998.5,N
1506454455.5,286047000.3,N
1506454475.4,286047001.0,N
1506454495.2,286047001.4,N
1506454515.0,286047004.8,N
1506454515.9,286047004.8,N
1506454535.8,286047005.3,N
1506454555.6,286047005.1,N
1506454575.4,286047008.8,N
1506454595.2,286047008.6,N
1506454615.1,286047012.4,N
1506454616.0,286047012.4,N
1506454635.8,286047015.2,N
1506454655.6,286047015.4,N
1506454675.5,286047016.9,N
1506454695.3,286047020.6,N
1506454715.1,286047027.4,Y
1506454735.9,286047026.4,P
1506454755.7,286047030.0,N
1506454775.5,286047034.7,P
1506454795.4,286047033.8,N
1506454815.2,286047033.9,Y
1506454835.0,286047011.7,P
1506454835.9,286047011.7,N
1506454855.8,286047011.1,N
1506454875.6,286047016.8,N
1506454895.4,286047020.2,Y
1506454915.3,286047001.3,P
1506454935.1,286047007.5,N
1506454955.8,286047001.5,N
1506454975.7,286046999.9,N
1506454995.5,286046994.9,N
1506455015.3,286046993.3,N
1506455035.2,286046990.1,N
1506455055.9,286046989.1,N
1506455075.7,286046988.2,N
1506455095.6,286046987.2,N
1506455115.4,286046986.9,N
1506455135.2,286046986.4,N
1506455155.0,286046982.6,N
1506455155.9,286046982.6,N
1506455175.8,286046979.1,N
1506455195.6,286046979.6,N
1506455215.4,286046993.2,N
1506455235.3,286046997.4,N
1506455255.1,286046997.5,N
1506455275.8,286046998.7,N
1506455295.7,286047000.0,N
1506455315.5,286047000.2,N
1506455335.3,286046999.1,N
1506455355.2,286046994.9,N
1506455375.9,286046994.2,N
1506455395.7,286046994.4,N
1506455415.5,286046992.6,N
1506455435.4,286046991.2,N
1506455455.2,286046988.9,N
1506455475.0,286046992.4,N
1506455475.9,286046992.4,N
1506455495.8,286046994.5,N
1506455515.6,286046994.8,N
1506455535.4,286046997.9,N
1506455555.3,286046990.5,N
1506455575.1,286046990.0,N
1506455576.0,286046990.0,N
1506455595.8,286046986.9,N
1506455615.7,286046987.5,N
1506455635.5,286046988.0,N
1506455655.3,286046982.4,Y
1506455675.2,286046990.2,P
1506455695.9,286046992.6,P
1506455715.7,286046992.8,P
1506455735.6,286046989.7,Y
1506455755.4,286046996.4,P
1506455775.2,286046993.6,N
1506455795.1,286046995.6,N
1506455796.0,286046995.6,N
1506455815.8,286046997.3,N
1506455835.6,286046995.2,N
1506455855.5,286046993.9,Y
1506455875.3,286046999.5,P
1506455895.1,286046997.5,N
1506455915.9,286046996.6,N
1506455935.7,286046997.6,N
1506455955.5,286046995.9,N
1506455975.4,286046995.3,Y
1506455995.2,286046998.8,P
